Preview of NWS' New Version of Forecast
This preview is not operational and should not be used for support decisions.

Regional Weather Roundup (RWR)

Issued by National Weather Service (NWS)

                            
000
ASUS44 KMEG 210710
RWRTN 
TENNESSEE HOURLY STATE WEATHER ROUNDUP
NATIONAL WEATHER SERVICE MEMPHIS TN
200 AM CDT SUN JUL 21 2019

TNZ002-004-019-021-049-052-054-088>092-210800-
WEST TENNESSEE
  
CITY           SKY/WX    TMP DP  RH WIND       PRES   REMARKS
MEMPHIS INTL   FAIR      77  75  93 S6        29.98S                  
NWS MEMPHIS      N/A     76 N/A N/A MISG        N/A                   
JACKSON        FAIR      75  73  93 S5        29.97F                  
DYERSBURG      FAIR      76  75  97 SE5       29.98S                  
SOMERVILLE     CLOUDY    75  73  94 S5        29.98S                  
COVINGTON      MOCLDY    75  73  94 S5        29.96F                  
UNION CITY     MOCLDY    77  75  94 S5        29.95S                  
BOLIVAR        CLOUDY    75  73  94 S3        29.98S                  
PARIS          CLEAR     75  75 100 S5        29.96S                  
HUNTINGDON     PTCLDY    75  75 100 CALM      29.97R                  
LEXINGTON      MOCLDY    75  73  94 S3        29.98F                  
SELMER         CLOUDY    75  73  94 S5        29.98F                  
SAVANNAH       CLOUDY    75  73  94 SW3       29.99S                  
$$

TNZ008-025-027-028-033-062-065-066-210800-
NORTH MIDDLE TENNESSEE
  
CITY           SKY/WX    TMP DP  RH WIND       PRES   REMARKS
NASHVILLE      PTCLDY    72  70  94 CALM      30.01S                  
PORTLAND       PTCLDY    72  72 100 SW6       29.99R                  
CLARKSVILLE    FAIR      75  70  84 S3        29.99R                  
LEBANON        SUNNY     73  72  94 CALM      29.98S                  
SMYRNA         FAIR      71  71 100 CALM      30.01S                  
MURFREESBORO   MOSUNNY   73  72  94 CALM      29.98F                  
COOKEVILLE     PTCLDY    72  70  94 VRB3      30.02R                  
LIVINGSTON     CLOUDY    70  70 100 CALM      30.01R FOG              
GALLATIN       MOSUNNY   73  72  94 CALM      30.02R                  
CROSSVILLE     CLOUDY    71  69  93 S6        30.06R                  
ROCKWOOD       FOG       72  72 100 S3        30.04S VSB 0            
$$

TNZ061-075-076-078-094-096-097-210800-
SOUTH MIDDLE TENNESSEE
  
CITY           SKY/WX    TMP DP  RH WIND       PRES   REMARKS
LAWRENCEBURG   PTSUNNY   73  72  94 CALM      30.03R                  
LEWISBURG      CLOUDY    72  72 100 CALM      30.01R                  
FAYETTEVILLE   PTCLDY    73  73 100 S5        30.03R                  
TULLAHOMA      CLOUDY    73  73 100 SE5       30.03R                  
WINCHESTER     CLOUDY    73  72  94 SE5       30.03R                  
MCMINNVILLE    CLEAR     72  70  94 CALM      30.03R                  
COLUMBIA       MOCLDY    72  72 100 SE3       29.99R                  
SHELBYVILLE    CLEAR     73  73 100 CALM      30.02R                  
$$

TNZ017-018-042-046-047-210800-
NORTHEAST TENNESSEE
  
CITY           SKY/WX    TMP DP  RH WIND       PRES   REMARKS
TRI CITIES     MOCLDY    72  70  93 CALM      30.06F                  
ELIZABETHTON   FAIR      70  68  94 CALM      30.06S                  
GREENEVILLE    SUNNY     72  70  94 CALM      30.05S                  
$$

TNZ012-013-036-069-073-074-210800-
CENTRAL EAST TENNESSEE
  
CITY           SKY/WX    TMP DP  RH WIND       PRES   REMARKS
KNOXVILLE      MOCLDY    74  72  93 NE5       30.01R                  
OAK RIDGE      FAIR      75  72  90 CALM      30.03S                  
DOWNTOWN KNOXV CLOUDY    75  75 100 CALM      30.02S FOG              
GATLINBURG     MOCLDY    73  73 100 S5        30.02R FOG              
MORRISTOWN     CLEAR     72  72 100 CALM      30.02S                  
JACKSBORO      CLOUDY    73  73 100 CALM      30.06R                  
$$

TNZ083-085-099-210800-
SOUTHEAST TENNESSEE
  
CITY           SKY/WX    TMP DP  RH WIND       PRES   REMARKS
CHATTANOOGA    FAIR      76  74  93 W3        30.01R                  
DAYTON         CLOUDY    75  75 100 CALM      30.00S FOG              
$$

SKY/WX REPORTED AS FAIR MEANS FEW OR NO CLOUDS BELOW
12 THOUSAND FEET.